Weather reports worldwide

Advertisment
Tarbes/Ossun, France (7621): temperature & dewpoint: 27.06.2020 18:00:00 - 03.07.2020 18:00:00 (CEST)Tarbes/Ossun, France (7621): temperature 5cm: 27.06.2020 18:00:00 - 03.07.2020 18:00:00 (CEST)Tarbes/Ossun, France (7621): temperature -20cm & temperature -100cm: 27.06.2020 18:00:00 - 03.07.2020 18:00:00 (CEST)Tarbes/Ossun, France (7621): wind speed & gusts: 27.06.2020 18:00:00 - 03.07.2020 18:00:00 (CEST)Tarbes/Ossun, France (7621): wind direction: 27.06.2020 18:00:00 - 03.07.2020 18:00:00 (CEST)Tarbes/Ossun, France (7621): reduced air pressure: 27.06.2020 18:00:00 - 03.07.2020 18:00:00 (CEST)Tarbes/Ossun, France (7621): visibility: 27.06.2020 18:00:00 - 03.07.2020 18:00:00 (CEST)Tarbes/Ossun, France (7621): sunshine duration: 27.06.2020 18:00:00 - 03.07.2020 18:00:00 (CEST)Tarbes/Ossun, France (7621): precipitation: 27.06.2020 18:00:00 - 03.07.2020 18:00:00 (CEST)
Date & Time tt [°C] td [°C] tt 5cm [°C] tt -20cm [°C] tt -100cm [°C] ff [km/h] ff [kn] fx [km/h] fx [kn] dd ppp [hPa] vv [km] sd [min] rr [mm]
03.07.2020 18:00:00 20,1 12,3 22,0 19,9 18,2 12 7 23 12 W 1022,7 52 0 0,0
03.07.2020 17:00:00 19,9 12,2 22,0 19,7 18,2 11 6 25 13 NW 1022,9 19 18 0,0
03.07.2020 16:00:00 19,9 11,9 22,4 19,6 18,2 8 5 28 15 W 1023,0 51 7 0,0
03.07.2020 15:00:00 18,8 11,4 21,2 19,6 18,2 5 3 23 12 WNW 1023,5 53 0 0,0
03.07.2020 14:00:00 18,6 12,8 20,8 19,5 18,2 7 4 16 9 SSW 1023,8 57 3 0,0
03.07.2020 13:00:00 18,2 11,3 20,4 19,4 18,2 4 2 15 8 SE 1024,2 60 0 0,0
03.07.2020 12:00:00 18,0 10,1 21,2 19,4 18,2 4 2 14 8 SSW 1024,0 58 2 0,0
03.07.2020 11:00:00 18,0 11,8 19,7 19,4 18,2 3 1 11 6 E 1023,7 59 17 0,0
03.07.2020 10:00:00 16,0 11,8 17,4 19,5 18,2 6 3 19 10 N 1023,9 49 0 0,0
03.07.2020 09:00:00 15,1 12,0 17,1 19,6 18,2 13 7 19 10 NNW 1023,8 54 9 0,0
03.07.2020 08:00:00 15,0 13,4 16,3 19,6 18,2 9 5 14 8 NW 1023,5 42 36 0,0
03.07.2020 07:00:00 14,2 13,4 16,0 19,7 18,2 3 2 5 3 SSW 1023,4 17 7 0,0
03.07.2020 06:00:00 14,1 13,3 15,9 19,8 18,2 4 2 9 5 SW 1023,4 26 0 0,0
03.07.2020 05:00:00 14,2 13,2 15,8 19,9 18,2 6 3 10 5 SW 1023,3 32 0 0,0
03.07.2020 04:00:00 14,5 13,2 16,3 19,9 18,2 5 3 10 5 WSW 1023,4 39 0 0,0
03.07.2020 03:00:00 14,5 13,2 16,1 20,0 18,2 4 2 11 6 SW 1023,5 55 0 0,0
03.07.2020 02:00:00 14,6 13,5 16,2 20,1 18,2 5 3 10 5 SSW 1023,3 60 0 0,0
03.07.2020 01:00:00 14,4 13,3 16,0 20,2 18,2 8 4 11 6 S 1023,2 60 0 0,0
03.07.2020 00:00:00 14,4 13,6 16,0 20,3 18,2 9 5 18 10 SW 1023,3 58 0 0,2
02.07.2020 23:00:00 14,3 13,8 16,1 20,3 18,2 13 7 16 9 S 1022,8 12 0 0,2
02.07.2020 22:00:00 14,5 13,5 16,1 20,4 18,2 13 7 18 10 SSW 1022,3 5 0 0,0
02.07.2020 21:00:00 14,7 13,4 16,5 20,4 18,2 12 6 24 13 SSW 1022,0 39 0 0,0
02.07.2020 20:00:00 15,0 13,4 17,3 20,5 18,2 9 5 21 11 SW 1021,5 54 0 0,2
02.07.2020 19:00:00 15,5 13,9 18,2 20,4 18,2 9 5 25 13 W 1021,1 6 0 0,0
02.07.2020 18:00:00 15,2 14,1 18,2 20,4 18,2 24 13 32 18 NW 1020,7 4,1 0 0,4
02.07.2020 17:00:00 16,3 15,5 19,1 20,4 18,2 17 9 27 14 NNW 1020,0 2,3 0 -
02.07.2020 16:00:00 17,3 16,0 20,9 20,3 18,2 10 5 17 9 WNW 1019,5 5 0 0,0
02.07.2020 15:00:00 17,1 15,6 20,8 20,3 18,2 7 4 15 8 NNW 1019,2 8 0 0,0
02.07.2020 14:00:00 18,0 16,0 22,2 20,3 18,2 3 2 15 8 N 1019,1 2,8 0 0,0
02.07.2020 13:00:00 16,8 15,0 18,9 20,3 18,2 7 4 22 12 N 1019,2 33 0 0,0
02.07.2020 12:00:00 16,0 14,7 19,5 20,4 18,2 8 5 15 8 NNE 1019,0 7 0 0,0
02.07.2020 11:00:00 15,5 14,7 18,7 20,5 18,2 13 7 19 10 NNE 1018,7 2,1 0 0,2
02.07.2020 10:00:00 15,4 14,8 17,9 20,5 18,2 12 7 20 11 N 1018,7 4,1 0 0,2
02.07.2020 09:00:00 15,2 14,7 17,1 20,6 18,2 6 4 21 11 NW 1018,5 3,0 0 0,2
02.07.2020 08:00:00 15,5 15,0 17,4 20,7 18,2 3 2 14 7 NW 1017,7 6 0 0,8
02.07.2020 07:00:00 15,4 14,9 17,1 20,7 18,2 2 1 16 9 NW 1017,7 2,2 0 0,0
02.07.2020 06:00:00 15,5 15,0 17,1 20,8 18,2 12 6 24 13 NNE 1017,2 2,2 0 1,4
02.07.2020 05:00:00 16,9 16,4 18,4 20,9 18,2 3 2 10 6 N 1016,8 1,8 0 0,8
02.07.2020 04:00:00 17,0 16,4 18,5 20,9 18,1 6 3 9 5 NW 1016,9 3,3 0 0,4
02.07.2020 03:00:00 17,4 16,9 18,4 21,0 18,1 4 2 10 5 WSW 1016,9 2,5 0 0,4
02.07.2020 02:00:00 17,6 17,1 18,4 21,1 18,1 9 5 13 7 SW 1017,2 4,7 0 0,4
02.07.2020 01:00:00 17,6 17,0 18,6 21,1 18,1 5 3 11 6 SSW 1017,4 6 0 0,4
02.07.2020 00:00:00 17,7 16,7 18,7 21,2 18,1 7 4 12 6 WSW 1017,2 6 0 0,0
01.07.2020 23:00:00 18,0 17,2 18,7 21,2 18,1 8 5 14 8 W 1016,8 6 0 0,0
01.07.2020 22:00:00 18,5 17,2 19,0 21,2 18,1 6 3 18 10 WSW 1016,3 13 0 0,2
01.07.2020 21:00:00 19,2 17,3 19,3 21,2 18,1 13 7 18 10 W 1016,2 9 0 0,0
01.07.2020 20:00:00 19,7 16,9 20,0 21,2 18,1 8 4 20 11 W 1015,7 39 0 0,0
01.07.2020 19:00:00 20,2 16,8 20,7 21,2 18,1 14 7 22 12 WSW 1015,1 38 0 0,0
01.07.2020 18:00:00 20,8 17,0 21,7 21,1 18,1 12 7 23 12 W 1015,4 41 0 0,0
01.07.2020 17:00:00 21,2 17,6 21,7 21,1 18,1 16 9 26 14 W 1015,2 36 0 0,0
01.07.2020 16:00:00 21,7 17,1 22,0 21,1 18,1 11 6 20 11 W 1014,9 35 0 0,0
01.07.2020 15:00:00 20,4 17,0 20,5 21,1 18,1 12 7 25 14 W 1014,9 19 0 0,0
01.07.2020 14:00:00 20,6 16,8 20,7 21,1 18,1 13 7 24 13 W 1014,5 25 0 0,0
01.07.2020 13:00:00 19,8 17,0 20,6 21,1 18,1 14 7 28 15 W 1014,1 30 0 0,0
01.07.2020 12:00:00 20,1 17,1 19,7 21,1 18,1 13 7 25 14 W 1013,7 20 4 0,0
01.07.2020 11:00:00 19,3 16,9 19,4 21,2 18,1 12 7 22 12 W 1013,4 34 0 0,0
01.07.2020 10:00:00 18,4 16,9 18,8 21,3 18,1 11 6 23 12 WSW 1013,5 18 0 0,0
01.07.2020 09:00:00 17,8 16,8 18,2 21,4 18,1 12 7 28 15 W 1013,3 11 0 0,0
01.07.2020 08:00:00 17,8 16,8 17,7 21,5 18,1 13 7 29 16 WSW 1012,6 12 8 0,0
01.07.2020 07:00:00 17,7 16,6 17,3 21,6 18,1 11 6 21 12 WSW 1012,2 29 11 0,0
01.07.2020 06:00:00 17,5 16,2 17,7 21,7 18,1 10 5 26 14 SSW 1011,5 41 0 0,0
01.07.2020 05:00:00 18,7 16,8 18,2 21,8 18,1 10 6 18 10 WSW 1011,5 54 0 0,0
01.07.2020 04:00:00 17,8 17,0 18,1 22,0 18,1 8 4 14 8 SW 1011,3 57 0 0,0
01.07.2020 03:00:00 18,2 17,6 18,6 22,1 18,1 9 5 15 8 SSW 1011,2 17 0 0,0
01.07.2020 02:00:00 18,7 17,9 19,1 22,2 18,1 4 2 11 6 WNW 1011,8 12 0 0,0
01.07.2020 01:00:00 19,2 18,2 19,3 22,2 18,1 2 1 13 7 WSW 1012,1 9 0 0,0
01.07.2020 00:00:00 19,8 18,6 20,0 22,2 18,1 4 2 11 6 S 1012,8 18 0 0,0
30.06.2020 23:00:00 20,7 18,5 20,1 22,2 18,1 10 6 23 12 SSW 1012,5 54 0 3,3
30.06.2020 22:00:00 22,6 17,1 21,4 22,2 18,1 8 4 12 6 WNW 1012,5 3,5 18 0,0
30.06.2020 21:00:00 24,7 16,4 23,7 22,0 18,0 7 4 15 8 E 1011,5 60 47 0,0
30.06.2020 20:00:00 26,3 16,2 26,7 21,8 18,1 8 4 14 8 NNE 1011,5 59 60 0,0
30.06.2020 19:00:00 26,6 14,7 29,1 21,5 18,1 7 4 20 11 ENE 1011,8 46 56 0,0
30.06.2020 18:00:00 27,2 14,9 35,2 21,3 18,1 5 3 18 10 N 1012,2 36 60 0,0
30.06.2020 17:00:00 26,3 15,0 38,0 20,9 18,1 8 4 19 10 N 1012,8 58 60 0,0
30.06.2020 16:00:00 25,3 14,1 37,2 20,6 18,1 7 4 19 11 E 1013,4 42 60 0,0
30.06.2020 15:00:00 24,2 14,9 35,1 20,4 18,1 7 4 28 15 ENE 1014,2 60 60 0,0
30.06.2020 14:00:00 22,6 14,9 33,6 20,2 18,1 8 4 21 12 E 1014,7 60 60 0,0
30.06.2020 13:00:00 21,4 14,5 27,3 20,0 18,1 6 4 18 10 E 1015,7 44 58 0,0
30.06.2020 12:00:00 19,9 14,3 23,9 20,0 18,1 5 3 15 8 E 1016,2 58 24 0,0
30.06.2020 11:00:00 18,4 13,7 21,4 20,1 18,1 10 5 19 10 ENE 1016,5 47 0 0,0
30.06.2020 10:00:00 17,1 13,2 19,2 20,1 18,1 7 4 16 9 E 1017,1 57 0 0,0
30.06.2020 09:00:00 15,8 13,3 17,2 20,2 18,1 4 2 9 5 NE 1017,5 56 0 0,0
30.06.2020 08:00:00 15,1 13,0 16,3 20,2 18,1 5 3 13 7 NNE 1017,7 57 0 0,0
30.06.2020 07:00:00 15,0 13,0 16,4 20,3 18,1 8 4 12 6 N 1017,8 55 0 0,0
30.06.2020 06:00:00 15,4 13,4 16,9 20,4 18,1 7 4 11 6 N 1017,8 31 0 0,0
30.06.2020 05:00:00 15,9 14,4 17,2 20,5 18,1 3 1 6 3 NE 1017,9 23 0 0,0
30.06.2020 04:00:00 15,6 14,3 17,1 20,5 18,1 4 2 10 5 NE 1018,5 13 0 0,0
30.06.2020 03:00:00 16,2 15,1 17,1 20,6 18,1 8 5 13 7 SW 1018,8 8 0 0,0
30.06.2020 02:00:00 16,7 14,7 17,5 20,7 18,1 5 3 9 5 SSW 1019,1 16 0 0,0
30.06.2020 01:00:00 16,9 15,2 17,5 20,7 18,0 5 3 10 5 S 1019,3 29 0 0,0
30.06.2020 00:00:00 16,8 15,1 17,5 20,7 18,1 5 3 10 5 S 1019,3 37 0 0,0
29.06.2020 23:00:00 16,8 15,3 17,4 20,8 18,0 8 4 12 7 SSW 1019,5 38 0 0,0
29.06.2020 22:00:00 16,8 15,5 17,8 20,8 18,1 8 4 14 7 WSW 1019,3 4,3 0 0,0
29.06.2020 21:00:00 17,4 15,6 18,6 20,8 18,0 6 4 14 8 W 1019,3 8 0 0,0
29.06.2020 20:00:00 18,3 15,4 19,4 20,8 18,0 5 3 15 8 W 1019,3 25 0 0,0
29.06.2020 19:00:00 18,8 15,1 20,0 20,8 18,0 10 5 18 10 W 1019,3 49 0 0,0
29.06.2020 18:00:00 18,6 15,1 20,1 20,8 18,0 9 5 26 14 W 1019,8 45 0 0,0
29.06.2020 17:00:00 18,0 15,6 20,5 20,8 18,0 7 4 21 12 W 1020,1 37 0 0,0
29.06.2020 16:00:00 18,3 15,7 20,9 20,7 18,0 15 8 24 13 NW 1020,3 41 0 0,0
29.06.2020 15:00:00 18,7 15,8 20,5 20,7 18,0 10 6 22 12 W 1020,6 51 0 0,0
29.06.2020 14:00:00 18,9 15,4 20,8 20,7 18,0 13 7 22 12 WNW 1020,8 56 0 0,0
29.06.2020 13:00:00 18,8 15,3 21,0 20,7 18,0 9 5 19 11 W 1021,0 50 0 0,0
29.06.2020 12:00:00 17,8 15,1 20,1 20,8 18,0 13 7 22 12 W 1021,2 47 0 0,0
29.06.2020 11:00:00 17,0 15,5 18,4 20,8 18,0 12 7 28 15 W 1021,1 38 0 0,0
29.06.2020 10:00:00 16,1 15,3 18,0 20,9 18,0 18 10 30 16 NW 1021,1 4,7 0 0,0
29.06.2020 09:00:00 17,8 16,3 18,3 21,0 18,0 11 6 21 11 W 1020,5 20 0 0,0
29.06.2020 08:00:00 17,6 16,1 18,3 21,0 18,0 6 3 16 9 W 1020,4 5 0 0,0
29.06.2020 07:00:00 17,8 15,8 18,0 21,1 18,0 6 3 16 9 SW 1020,1 19 0 0,0
29.06.2020 06:00:00 17,8 15,8 17,9 21,2 18,0 8 5 24 13 SW 1019,8 42 0 0,0
29.06.2020 05:00:00 18,0 16,0 17,8 21,3 18,0 10 5 19 10 WSW 1019,9 36 0 0,0
29.06.2020 04:00:00 18,0 15,4 17,8 21,4 18,0 11 6 21 11 W 1020,0 51 0 0,0
29.06.2020 03:00:00 18,0 15,3 17,4 21,5 18,0 10 6 24 13 WSW 1019,7 57 0 0,0
29.06.2020 02:00:00 18,1 16,3 17,2 21,6 17,9 14 7 24 13 WSW 1019,8 31 0 0,0
29.06.2020 01:00:00 17,3 15,6 17,6 21,7 18,0 7 4 11 6 S 1020,2 20 0 0,0
29.06.2020 00:00:00 17,9 16,2 17,8 21,7 18,0 6 4 13 7 SSE 1020,4 24 0 0,0
28.06.2020 23:00:00 19,3 16,5 18,5 21,8 17,9 6 3 13 7 SE 1020,1 28 0 0,0
28.06.2020 22:00:00 19,1 16,3 19,0 21,8 17,9 8 4 13 7 SW 1019,7 19 19 0,0
28.06.2020 21:00:00 21,2 16,8 21,3 21,8 17,9 9 5 17 9 W 1019,4 37 38 0,0
28.06.2020 20:00:00 22,1 16,8 22,6 21,7 17,9 8 4 19 10 W 1018,9 35 29 0,0
28.06.2020 19:00:00 21,7 16,6 22,0 21,7 17,9 10 5 16 9 WSW 1018,9 37 0 0,0
28.06.2020 18:00:00 21,5 16,7 22,5 21,6 17,9 6 4 10 6 W 1018,9 18 0 0,0
28.06.2020 17:00:00 21,7 16,6 23,7 21,5 17,9 8 4 14 8 WNW 1018,8 32 0 0,0
28.06.2020 16:00:00 22,1 16,6 25,5 21,4 17,9 8 4 18 10 NW 1018,6 38 0 0,0
28.06.2020 15:00:00 21,9 16,6 26,9 21,3 17,9 6 3 14 8 N 1018,7 20 0 0,0
28.06.2020 14:00:00 21,6 15,9 25,2 21,4 17,9 6 3 17 9 S 1018,8 19 6 0,0
28.06.2020 13:00:00 20,3 15,9 23,2 21,3 17,9 3 2 10 6 N 1019,5 38 0 0,0
28.06.2020 12:00:00 19,8 15,6 21,8 21,4 17,9 2 1 14 8 SSW 1019,7 45 0 0,0
28.06.2020 11:00:00 18,5 15,0 19,7 21,5 17,9 4 2 16 9 NNE 1020,1 43 0 0,0
28.06.2020 10:00:00 18,0 14,3 19,3 21,5 17,9 9 5 17 9 NNE 1020,0 57 0 0,2
28.06.2020 09:00:00 18,0 15,3 18,7 21,6 17,9 5 3 11 6 N 1020,0 46 0 0,0
28.06.2020 08:00:00 17,5 15,8 18,7 21,7 17,8 8 4 11 6 W 1019,7 21 0 0,0
28.06.2020 07:00:00 17,9 15,9 18,4 21,8 17,8 7 4 17 9 NW 1019,5 9 0 0,0
28.06.2020 06:00:00 18,5 15,7 18,4 21,9 17,8 14 8 26 14 W 1019,2 37 0 0,0
28.06.2020 05:00:00 19,7 16,7 19,2 22,0 17,8 13 7 21 12 W 1018,5 47 0 0,0
28.06.2020 04:00:00 20,5 17,9 19,8 22,1 17,8 9 5 16 8 W 1018,2 25 0 0,0
28.06.2020 03:00:00 20,6 17,2 20,0 22,2 17,8 7 4 13 7 W 1017,9 37 0 0,0
28.06.2020 02:00:00 20,2 18,1 19,9 22,3 17,8 4 2 12 7 S 1017,8 20 0 0,0
28.06.2020 01:00:00 20,2 18,0 19,7 22,4 17,8 9 5 11 6 S 1017,8 17 0 0,0
28.06.2020 00:00:00 19,6 18,1 19,3 22,4 17,8 8 4 11 6 S 1017,8 18 0 0,0
27.06.2020 23:00:00 19,8 17,8 19,8 22,4 17,8 6 4 8 4 SSW 1017,6 19 0 0,0
27.06.2020 22:00:00 22,6 18,4 21,2 22,4 17,8 0 0 7 4 N 1016,3 6 4 0,0
27.06.2020 21:00:00 23,9 18,1 23,1 22,5 17,8 3 1 10 6 W 1015,8 35 4 0,0
27.06.2020 20:00:00 24,5 18,0 24,0 22,4 17,8 5 3 8 5 W 1015,8 38 0 0,0
27.06.2020 19:00:00 24,8 17,3 23,3 22,3 17,8 5 3 16 9 NW 1015,6 39 0 0,0
27.06.2020 18:00:00 24,5 17,2 23,9 22,2 17,8 10 6 21 11 N 1015,7 40 0 0,0

tt = temperature
td = dewpoint
tt 5cm = temperature 5cm
tt -20cm = temperature -20cm
tt -100cm = temperature -100cm
ff = wind speed
fx = gusts
dd = wind direction
ppp = reduced air pressure
vv = visibility
sd = sunshine duration
rr = precipitation

Next stations